{"data":{"norad_id":69364,"intl_designator":"2026-123M","name":"STARLINK-37309","alt_names":[],"object_type":"PAYLOAD","status":"ACTIVE","operator":null,"country":"US","launch_date":"2026-06-04","launch_site_code":"AFETR","launch_vehicle":null,"mission":null,"orbit_class":"UNKNOWN","rcs_meters":null,"size_class":null,"mass_kg":null,"dimensions":null,"purposes":["comms"],"wikipedia_slug":null,"has_3d_model":false,"image_url":null,"decayed_at":null,"tle_current":{"epoch":"2026-09-19T05:58:47.629632Z","epoch_age_seconds":137171,"freshness":"FRESH","line1":"1 69364U 26123M   26262.24916238  .00027406  00000+0  81885-3 0  9996","line2":"2 69364  53.1555 147.8803 0000840  99.8587 260.2510 15.34416282 16675","mean_motion":15.34416282,"eccentricity":8.4e-5,"inclination_deg":53.1555,"raan_deg":147.8803,"arg_perigee_deg":99.8587,"mean_anomaly_deg":260.251,"bstar":0.00081885,"rev_number":1667,"period_min":93.846762243885,"perigee_km":462.0802205846,"apogee_km":463.22947361491,"semimajor_km":6840.7918470998,"source":"CELESTRAK","updated_at":"2026-09-20T09:00:44.166511Z"}}}